Simultaneous Nadir Overpasses (SNOs) Predictions

Prediction of SNOs between AQUA and METOP-B Satellite Orbit:

Table of predicted SNOs for the next 14.0 days since TLE Epoch: 8/7/2020
Index Date (AQUA) Time (AQUA) Lat,Lon (AQUA) SZA (AQUA ) Date (METOP-B) Time (METOP-B) Lat,Lon (METOP-B) SZA (METOP-B ) Distance(km) Time Diff (sec)
1 08/09/2020 04:23:27 -73.79, -71.52 121.88 08/09/2020 04:22:30 -73.79, -71.56 121.88 1.04 57
2 08/09/2020 05:12:56 73.85, 95.99 58.19 08/09/2020 05:13:09 73.85, 95.91 58.19 2.57 13
3 08/09/2020 06:02:32 -74.41, -97.65 121.20 08/09/2020 06:03:39 -74.41, -95.37 121.29 68.33 67
4 08/11/2020 23:57:43 -73.79, -5.08 121.06 08/11/2020 23:56:51 -73.78, -5.16 121.05 2.66 52
5 08/12/2020 00:47:13 73.90, 162.31 59.07 08/12/2020 00:47:29 73.89, 162.41 59.05 3.56 16
6 08/12/2020 01:36:51 -74.56, -31.58 120.21 08/12/2020 01:37:57 -74.55, -28.59 120.34 88.52 66
7 08/14/2020 19:31:58 -73.79, 61.35 120.20 08/14/2020 19:31:10 -73.82, 61.34 120.16 3.32 48
8 08/14/2020 20:21:27 73.85,-131.15 59.88 08/14/2020 20:21:49 73.87,-131.20 59.90 2.76 22
9 08/17/2020 15:06:14 -73.80, 127.77 119.30 08/17/2020 15:05:31 -73.81, 127.73 119.28 1.86 43
10 08/17/2020 15:55:43 73.86, -64.74 60.78 08/17/2020 15:56:10 73.86, -64.83 60.78 2.72 27
11 08/20/2020 10:40:30 -73.81,-165.82 118.38 08/20/2020 10:39:52 -73.80,-165.89 118.38 2.58 38
12 08/20/2020 11:29:59 73.88, 1.66 61.71 08/20/2020 11:30:30 73.89, 1.67 61.72 1.49 31
